Location: Zagreb
(45.8000°N, 16.0000°E)
Time: 14:48:15
(UTC+02:00)

ISS - Visible Passes

Search period start: 24 June 2024 00:00
Search period end: 04 July 2024 00:00
Orbit: 410 x 425 km, 51.6° (Epoch: 24 June)

Date Brightness Start Highest point End Pass type
(mag) Time Alt. Az. Time Alt. Az. Time Alt. Az.
25 Jun -2.8 03:48:41 16° SSW 03:50:53 35° SE 03:53:58 10° ENE visible
26 Jun -2.2 03:02:17 21° SSE 03:02:54 22° SE 03:05:33 10° E visible
27 Jun -1.3 02:15:47 13° ESE 02:15:47 13° ESE 02:16:44 10° E visible
27 Jun -3.8 03:48:41 16° WSW 03:51:13 86° SSE 03:54:35 10° ENE visible
28 Jun -3.6 03:02:07 38° SSW 03:03:03 54° SE 03:06:20 10° ENE visible
29 Jun -2.6 02:15:28 31° ESE 02:15:28 31° ESE 02:17:57 10° ENE visible
29 Jun -3.0 03:48:21 10° W 03:51:35 48° NNW 03:54:51 10° ENE visible
30 Jun -1.3 01:28:45 13° E 01:28:45 13° E 01:29:23 10° E visible
30 Jun -3.6 03:01:37 27° WSW 03:03:16 67° NNW 03:06:36 10° ENE visible
01 Jul -4.0 02:14:50 79° SSW 02:14:57 82° SSE 02:18:18 10° ENE visible
01 Jul -2.1 03:48:55 10° WNW 03:51:58 32° N 03:55:02 10° NE visible
02 Jul -2.4 01:27:57 30° E 01:27:57 30° E 01:29:55 10° ENE visible
02 Jul -2.5 03:00:49 13° W 03:03:30 39° NNW 03:06:40 10° NE visible
03 Jul -1.2 00:40:59 13° E 00:40:59 13° E 00:41:24 10° ENE visible
03 Jul -3.0 02:13:51 32° WNW 02:15:03 50° NNW 02:18:19 10° ENE visible
03 Jul -1.7 03:49:19 10° WNW 03:52:16 28° N 03:55:14 10° ENE visible
